EW4987 Weather Reports


time (UTC)temp
C
wind
direction
speed
KPH
gust
KPH
rain 1hr
cm
rain 24hr
cm
rain mn
cm
humidity
%
barometer
mb
20260504214546 19 288 12.9 27.4 0.00 0.00 0.00 23 1001.6
20260504213040 20 273 0.0 0.0 0.00 0.00 0.00 23 1001.7
20260504211536 20 280 0.0 0.0 0.00 0.00 0.00 25 1001.8
20260504210030 19 293 0.0 0.0 0.00 0.00 0.00 25 1001.9
20260504204525 18 196 0.0 0.0 0.00 0.00 0.00 31 1002.2
20260504203021 17 215 0.0 0.0 0.00 0.00 0.00 30 1002.5
20260504201519 17 237 0.0 0.0 0.00 0.00 0.00 29 1002.7
20260504200017 17 196 0.0 0.0 0.00 0.00 0.00 33 1002.9
20260504194511 16 270 0.0 0.0 0.00 0.00 0.00 33 1003.2
20260504193003 16 223 0.0 0.0 0.00 0.00 0.00 32 1003.4
20260504191619 16 126 0.0 0.0 0.00 0.00 0.00 30 1003.4
20260504190055 16 360 0.0 0.0 0.00 0.00 0.00 29 1003.6
20260504184550 16 241 0.0 0.0 0.00 0.00 0.00 27 1002.9
20260504183046 16 215 0.0 0.0 0.00 0.00 0.00 27 1002.9
20260504181541 17 330 0.0 0.0 0.00 0.00 0.00 34 1003.1
20260504180121 17 329 0.0 0.0 0.00 0.00 0.00 31 1003.2
20260504174532 18 340 0.0 0.0 0.00 0.00 0.00 31 1003.3
20260504173027 18 160 0.0 0.0 0.00 0.00 0.00 34 1003.5
20260504171523 18 184 0.0 0.0 0.00 0.00 0.00 31 1003.8
20260504120119 1 92 0.0 0.0 0.00 0.00 0.00 1 1006.9
20260504081519 2 90 0.0 0.0 0.00 0.00 0.00 52 1006.3
20260504044525 8 90 0.0 0.0 0.00 0.00 0.00 42 1006.5
20260504043021 9 90 0.0 0.0 0.00 0.00 0.00 41 1006.5
20260504041516 10 90 0.0 0.0 0.00 0.00 0.00 41 1006.4
20260504040014 11 90 0.0 0.0 0.00 0.00 0.00 35 1006.2
20260504034510 12 90 0.0 0.0 0.00 0.00 0.00 35 1006.2
20260504033003 12 90 0.0 0.0 0.00 0.00 0.00 31 1006.1
20260504031601 13 90 0.0 0.0 0.00 0.00 0.00 30 1005.9
20260504030114 13 88 0.0 0.0 0.00 0.00 0.00 29 1005.8
20260504024551 13 88 0.0 0.0 0.00 0.00 0.00 30 1005.7
20260504023046 13 258 0.0 0.0 0.00 0.00 0.00 31 1005.6
20260504021546 15 258 0.0 0.0 0.00 0.00 0.00 30 1005.5
20260504020038 16 258 0.0 0.0 0.00 0.00 0.00 27 1005.4
20260504014532 17 258 0.0 0.0 0.00 0.00 0.00 25 1005.4
20260504013034 18 258 0.0 0.0 0.00 0.00 0.00 26 1005.4
20260504011523 18 258 0.0 0.0 0.00 0.00 0.00 26 1005.6
20260504010019 18 258 0.0 0.0 0.00 0.00 0.00 19 1005.8
20260504004532 18 258 0.0 0.0 0.00 0.00 0.00 21 1005.8
20260504003010 19 258 0.0 0.0 0.00 0.00 0.00 23 1005.8
20260504001519 20 251 0.0 0.0 0.00 0.00 0.00 16 1006.1
20260504000002 20 251 0.0 0.0 0.00 0.00 0.00 15 1006.2
20260503234557 20 302 0.0 0.0 0.00 0.00 0.00 15 1006.3
20260503233053 20 302 0.0 0.0 0.00 0.00 0.00 16 1006.4
20260503231548 20 302 0.0 0.0 0.00 0.00 0.00 14 1006.5
20260503230104 21 302 0.0 0.0 0.00 0.00 0.00 16 1006.6
20260503224540 21 243 0.0 0.0 0.00 0.00 0.00 16 1006.8
20260503223035 21 323 0.0 0.0 0.00 0.00 0.00 18 1007.0
20260503221534 20 249 0.0 0.0 0.00 0.00 0.00 18 1007.2
20260503220033 20 310 0.0 0.0 0.00 0.00 0.00 16 1007.5